Regional Weather Roundup
Issued by NWS

Home | Current Version | Previous Version | Text Only | Print | Product List | Glossary On
Versions: 1 2 3 4 5 6 7 8 9 10 11 12 13 14 15 16 17 18 19 20 21 22 23 24 25 26 27 28 29 30 31 32 33 34 35 36 37 38 39 40 41 42 43 44 45 46 47 48 49 50
000
ASUS43 KTOP 200208
RWRKS

WEATHER ROUNDUP FOR KANSAS
NATIONAL WEATHER SERVICE GOODLAND KS
900 PM CDT SAT AUG 19 2017

NOTE:  "FAIR" INDICATES FEW OR NO CLOUDS BELOW 12,000 FEET WITH NO
SIGNIFICANT WEATHER AND/OR OBSTRUCTIONS TO VISIBILITY.

KSZ001>006-013>018-027>032-041>047-200300-
NORTHWEST KANSAS

CITY           SKY/WX    TMP DP  RH WIND       PRES   REMARKS
GOODLAND       CLEAR     79  59  50 S12       29.91R
HAYS           PTCLDY    81  65  58 SE9       29.86R
HILL CITY      CLEAR     85  56  37 S8        29.84S
RUSSELL        CLEAR     87  64  46 SE14      29.84R
$$

KSZ061>065-074>080-084>089-200300-
SOUTHWEST KANSAS

CITY           SKY/WX    TMP DP  RH WIND       PRES   REMARKS
DODGE CITY     PTCLDY    82  61  48 S8        29.92R
ELKHART          N/A     74  60  61 S8          N/A
GARDEN CITY    CLOUDY    78  65  63 SE7       29.92S
GREAT BEND     CLEAR     84  68  58 S13       29.87R
LIBERAL        CLOUDY    79  69  71 S10       29.95R
PRATT          CLOUDY    88  64  44 SE9       29.91R
$$

KSZ066>073-081>083-090>101-200300-
SOUTHEAST KANSAS

CITY           SKY/WX    TMP DP  RH WIND       PRES   REMARKS
CHANUTE        CLOUDY    81  78  91 SE6       29.91S
COFFEYVILLE    CLOUDY    84  78  82 SE7       29.90R HX  95
HUTCHINSON     CLEAR     80  66  62 SE6       29.88S
MEDICINE LODGE   N/A     82  63  52 SE12G28   29.91R
NEWTON         CLEAR     77  69  76 SE7       29.91S
PARSONS        CLOUDY    84  76  76 CALM      29.92R
WICHITA INTL   MOCLDY    79  66  64 SE8       29.88S
WICHITA JABRA  CLOUDY    79  68  69 S6        29.89S
WICHITA MCCONL CLOUDY    81  64  57 S5        29.90R
WINFIELD       CLOUDY    85  76  74 S6        29.90S
$$

KSZ007>012-019>026-033>040-048>060-102>105-200300-
NORTHEAST KANSAS

CITY           SKY/WX    TMP DP  RH WIND       PRES   REMARKS
CONCORDIA      PTCLDY    82  75  79 SE10      29.84S
EMPORIA        CLEAR     80  72  76 SE7       29.90R
LAWRENCE       CLEAR     78  74  87 E6        29.90R
MANHATTAN      CLEAR     83  74  74 S9        29.86S
MARYSVILLE     CLEAR     82  70  65 SE8       29.87R
OLATHE IND     CLEAR     80  73  79 SE7       29.92R
OLATHE EXE     CLEAR     79  74  84 SE6       29.92R
SALINA         CLEAR     89  70  53 S13       29.85S
TOPEKA BILLARD CLEAR     80  75  84 E6        29.89R
TOPEKA FORBES  CLEAR     82  76  81 SE6       29.90R
$$




USA.gov is the U.S. government's official web portal to all federal, state and local government web resources and services.